Location: *
(43.4667°N, 11.6833°E)
Time: 07:05:41
(UTC+00:00)

Cosmos 2237 - Pass Details

Date: 19 July 2019
Orbit: 846 x 856 km, 70.8° (Epoch: 25 August)

Event Time Altitude Azimuth Distance (km) Brightness Sun altitude
Rises 20:12:04 0° 192° (SSW) 3,392 7.0 -12.7°
Reaches altitude 10° 20:14:31 10° 189° (S) 2,461 6.3 -13.0°
Maximum altitude 20:20:04 61° 110° (ESE) 959 4.2 -13.7°
Drops below altitude 10° 20:25:40 10° 32° (NNE) 2,480 6.8 -14.4°
Sets 20:28:09 0° 29° (NNE) 3,420 7.6 -14.7°
